Temp_Advection
nan nan nan nan nan nan nan nan nan nan nan nan nan nan nan nan nan nan nan nan nan nan nan nan nan nan nan nan nan nan nan nan nan
nan -0 0 -0 -0 -0 0 0 -0 0 0 0 0 0 0 0 0 0 0 -0 -0 -0 -0 -0 -0 -0 -0 -0 -0 -0 -0 0 nan
nan -0 0 -0 -0 -0 -0 0 0 -0 0 0 0 0 -0 -0 0 -0 -0 -0 -0 -0 -0 -0 0 0 0 -0 -0 -0 -0 0 nan
nan 0 0 0 0 0 -0 -0 -0 -0 0 0 0 -0 -0 -0 -0 -0 -0 -0 -0 -0 -0 -0 0 0 0 0 -0 -0 -0 -0 nan
nan -0 0 0 0 0 0 0 0 0 0 0 0 0 0 -0 -0 -0 -0 -0 -0 -0 -0 -0 -0 0 0 0 0 -0 0 -0 nan
nan -0 -0 -0 -0 -0 0 0 -0 0 0 0 0 -0 -0 -0 0 0 -0 -0 -0 -0 -0 -0 -0 0 0 0 0 -0 -0 0 nan
nan -0 -0 -0 -0 0 -0 -0 -0 -0 0 0 0 0 0 -0 -0 0 0 -0 -0 -0 -0 -0 -0 -0 0 0 0 0 0 0 nan
nan -0 -0 -0 -0 -0 -0 -0 -0 -0 -0 0 0 0 0 -0 -0 -0 -0 -0 -0 -0 -0 -0 -0 -0 -0 0 0 0 0 0 nan
nan -0 -0 -0 -0 -0 -0 -0 -0 -0 -0 -0 -0 -0 -0 0 -0 -0 -0 -0 -0 0 0 -0 -0 0 0 -0 0 0 0 0 nan
nan -0 -0 -0 -0 -0 -0 -0 -0 -0 -0 -0 -0 -0 -0 -0 -0 -0 -0 -0 -0 -0 0 0 -0 0 0 -0 -0 0 0 0 nan
nan -1 -1 -1 -1 -1 -1 -1 -0 -0 -0 -0 -0 -0 -0 -0 -0 -1 -0 -0 0 -0 0 0 -0 -0 -0 -0 0 0 0 0 nan
nan -1 -1 -1 -1 -1 -1 -1 -1 -1 -1 -0 -0 -0 -0 0 0 -0 -1 -1 -0 0 -0 -0 0 -0 0 -0 -0 0 0 0 nan
nan -1 -1 -1 -1 -1 -1 -1 -1 -1 -1 -1 -1 -1 -0 -0 -0 -0 -0 -0 -0 -0 0 0 0 -0 -0 0 0 -0 0 0 nan
nan -1 -1 -1 -1 -1 -1 -2 -2 -2 -2 -2 -2 -1 -1 -1 -1 -1 -0 0 0 -0 -1 -0 0 0 0 -0 -0 0 -0 -0 nan
nan -1 -1 -1 -1 -2 -2 -1 -1 -2 -2 -3 -2 -1 -1 -1 -1 -1 -1 0 0 -0 -1 -1 -0 1 0 -0 -0 0 -0 -0 nan
nan -1 -1 -1 -1 -1 -1 -1 -1 -1 -2 -4 -4 -2 -1 -1 -0 0 -0 0 -0 -1 -1 -0 -1 -0 -0 0 0 -0 0 -0 nan
nan -1 -1 -1 -1 -0 -0 -1 -1 -1 -2 -3 -4 -4 -4 -1 -0 -1 -1 -0 -0 -0 -1 -1 -1 -0 -0 0 0 0 -0 -1 nan
nan -0 -1 -1 -1 -1 -1 -1 -1 -1 -0 -1 -1 -1 -1 -8 -5 -3 -1 -1 -1 -1 -1 -1 -0 -1 -1 -0 -0 -0 0 -0 nan
nan -0 -0 -0 -0 -0 -0 -0 -0 -1 -0 0 0 0 0 -1 -4 -7 -5 -3 -2 -2 -2 -2 -1 -1 -0 -1 -2 -1 -0 0 nan
nan nan nan nan nan nan nan nan nan nan nan nan nan nan nan nan nan nan nan nan nan nan nan nan nan nan nan nan nan nan nan nan nan
Wind_Speed
9 11 10 10 10 10 8 8 7 5 6 5 5 6 7 8 9 10 9 7 6 5 4 4 4 4 4 4 6 8 9 11 10
4 5 6 9 8 8 7 7 6 5 3 3 2 2 3 3 6 7 8 8 6 4 3 2 2 2 2 3 5 4 4 8 9
2 3 1 4 5 5 5 5 7 6 3 4 4 2 1 2 1 4 6 6 6 5 3 1 0 1 1 3 5 4 2 3 4
3 3 2 2 3 3 2 2 2 5 6 7 7 6 5 2 1 1 3 3 3 4 4 3 2 3 4 4 2 4 2 3 1
3 4 3 3 3 3 3 2 2 3 5 6 7 8 7 6 5 5 3 4 4 2 3 5 5 6 6 5 2 2 1 2 3
2 2 2 4 5 6 5 5 5 5 6 8 8 9 9 9 9 8 7 7 6 4 4 6 7 7 9 8 5 3 3 3 4
3 2 2 2 2 5 7 8 8 7 8 9 11 11 11 11 11 10 11 10 10 9 8 7 7 10 10 12 9 8 4 3 7
3 5 6 6 6 6 7 7 10 11 10 10 11 13 14 14 14 14 14 14 12 13 14 12 9 9 11 12 13 12 10 8 6
9 9 8 7 7 9 9 8 8 9 10 12 13 15 16 16 18 18 17 18 18 17 16 16 14 11 12 13 14 16 14 11 10
12 13 12 12 12 11 11 11 10 11 12 13 15 15 16 19 19 20 20 20 19 20 20 19 18 16 14 15 16 17 17 15 14
15 15 16 16 16 16 16 16 16 15 14 12 15 19 20 19 22 21 22 22 23 20 21 23 21 22 19 16 17 19 21 19 18
19 19 19 19 19 20 20 19 19 18 17 17 16 16 17 21 24 26 25 24 25 25 23 25 24 25 24 21 20 21 22 22 23
22 22 23 24 24 25 25 26 25 24 24 22 20 19 17 18 19 19 21 26 27 27 28 26 27 23 27 26 25 24 24 24 25
24 25 26 26 26 26 26 27 29 30 29 28 26 23 21 20 19 20 20 20 21 23 26 29 31 29 25 29 29 27 26 25 26
20 22 23 25 26 27 27 29 29 30 32 32 30 27 23 21 18 19 18 19 20 20 24 28 29 32 30 28 32 31 30 28 28
23 23 23 24 26 28 28 27 28 30 33 35 33 27 19 19 18 17 17 18 17 18 19 22 26 28 33 31 27 30 33 33 31
22 23 24 25 26 27 29 30 30 30 32 32 29 24 25 11 9 18 18 19 18 20 19 19 20 18 17 25 36 31 28 36 36
18 19 20 21 23 25 27 29 30 29 27 26 22 12 10 38 28 28 25 28 26 27 23 26 23 23 24 18 16 28 32 33 31
17 18 19 20 21 22 23 25 26 26 27 24 20 17 18 18 23 36 39 35 34 33 34 32 28 29 28 27 28 25 20 31 37
18 19 20 21 21 22 22 22 22 23 23 23 25 25 22 18 19 35 45 42 38 36 37 38 35 33 31 30 34 32 35 26 32
Wind_Direction
99 99 88 76 69 71 93 102 111 124 136 130 113 97 86 93 100 89 81 74 73 85 86 94 93 81 61 61 64 68 95 123 132
97 92 99 100 94 82 89 99 114 128 165 183 167 99 71 72 78 83 89 85 70 58 59 92 116 125 37 10 24 39 80 151 166
119 99 89 106 114 113 111 119 130 146 168 217 241 264 330 21 57 47 55 61 75 55 31 54 267 206 237 321 355 352 56 143 164
189 183 179 186 168 160 165 128 118 152 165 195 217 236 250 277 269 335 20 38 36 36 11 340 270 266 225 254 356 2 359 96 131
263 248 230 227 228 216 215 249 237 218 201 201 215 221 219 237 254 265 277 288 310 337 347 328 307 262 253 240 255 6 254 100 42
287 292 306 263 256 254 244 239 242 238 229 230 233 233 235 230 240 250 264 271 279 274 331 335 303 279 252 234 238 245 273 208 241
346 316 283 288 277 262 270 261 257 249 239 239 238 241 245 250 250 247 251 266 272 276 290 301 313 296 269 239 230 228 195 237 237
347 327 303 292 281 292 281 276 277 271 260 251 250 248 243 245 251 256 258 257 260 274 270 279 275 298 278 254 232 229 224 232 254
38 34 30 6 337 325 313 307 305 290 288 284 272 262 258 255 251 250 255 261 260 262 273 269 271 269 271 261 252 231 228 237 247
22 17 12 8 2 351 346 342 326 303 292 289 284 280 274 267 265 263 254 253 256 263 258 269 265 266 266 267 248 241 236 246 250
14 7 1 356 351 347 342 335 329 323 316 305 292 288 284 284 277 270 262 257 256 261 257 261 269 266 263 262 257 249 248 252 253
3 358 353 349 344 339 333 327 322 316 311 309 302 294 289 285 281 278 271 263 258 254 255 257 264 270 263 265 260 255 256 254 254
360 355 351 347 341 337 331 325 321 317 312 306 302 299 298 293 288 286 281 271 267 260 251 255 259 269 265 264 264 259 259 256 253
356 353 350 345 341 338 336 334 329 324 317 311 305 301 300 297 294 289 285 278 272 265 262 251 253 257 265 266 265 263 260 259 256
354 350 346 343 340 337 335 335 335 332 326 320 312 307 300 294 291 285 281 280 271 274 265 259 253 251 254 261 263 265 262 262 261
354 352 349 347 346 347 345 342 338 336 331 327 316 314 310 291 278 271 273 272 273 273 273 266 262 257 252 248 258 259 262 263 260
345 343 342 340 340 339 340 342 344 347 348 350 347 338 323 294 264 286 284 289 287 276 273 275 268 258 252 248 247 251 259 261 259
331 330 329 329 330 331 333 335 339 342 347 352 357 347 326 326 313 301 297 296 294 292 288 281 281 282 275 258 248 242 249 249 263
312 313 313 313 315 317 319 323 327 331 335 338 343 339 329 327 319 312 313 310 306 303 296 296 287 287 289 285 285 252 245 245 248
298 298 298 299 301 304 307 309 313 319 324 329 331 331 329 329 306 312 318 314 311 308 307 304 304 297 298 294 283 267 255 251 246
Height
1566 1566 1567 1567 1569 1569 1569 1569 1570 1570 1571 1571 1572 1573 1573 1573 1573 1573 1573 1574 1574 1574 1574 1574 1574 1574 1574 1574 1574 1574 1575 1575 1575
1568 1569 1568 1567 1569 1570 1570 1570 1571 1571 1572 1572 1573 1574 1574 1574 1574 1574 1574 1574 1575 1575 1575 1575 1575 1575 1575 1575 1575 1575 1576 1576 1576
1568 1569 1570 1569 1569 1570 1570 1570 1570 1570 1572 1573 1573 1574 1574 1575 1575 1575 1575 1575 1575 1575 1575 1575 1575 1576 1576 1576 1576 1576 1576 1576 1577
1568 1568 1568 1569 1569 1569 1569 1571 1571 1570 1571 1571 1572 1573 1574 1575 1575 1575 1576 1576 1576 1576 1576 1576 1576 1575 1576 1577 1576 1576 1576 1577 1577
1568 1568 1568 1568 1569 1568 1569 1570 1570 1571 1571 1571 1571 1572 1572 1574 1575 1575 1575 1576 1576 1576 1576 1576 1576 1576 1576 1577 1577 1577 1576 1577 1578
1567 1567 1568 1567 1567 1568 1568 1568 1569 1569 1570 1571 1571 1571 1572 1572 1572 1574 1574 1575 1575 1575 1576 1576 1576 1575 1575 1576 1577 1577 1577 1578 1578
1567 1567 1567 1567 1566 1566 1567 1567 1568 1568 1568 1569 1569 1570 1570 1571 1572 1572 1572 1573 1574 1574 1574 1575 1575 1575 1574 1574 1576 1576 1576 1577 1577
1567 1566 1566 1565 1565 1565 1565 1565 1565 1566 1566 1566 1567 1568 1568 1569 1570 1571 1571 1571 1571 1572 1572 1572 1573 1573 1573 1573 1574 1575 1575 1575 1576
1566 1565 1565 1564 1563 1564 1564 1564 1564 1563 1563 1564 1565 1565 1566 1566 1567 1567 1568 1569 1570 1569 1570 1570 1571 1570 1571 1571 1572 1573 1574 1574 1574
1566 1565 1565 1563 1563 1563 1562 1562 1562 1561 1561 1561 1562 1562 1563 1564 1564 1564 1565 1565 1566 1567 1567 1567 1568 1568 1568 1568 1569 1570 1571 1572 1572
1566 1565 1564 1563 1562 1562 1561 1560 1560 1559 1559 1558 1558 1559 1559 1560 1560 1560 1561 1562 1562 1563 1563 1564 1564 1565 1565 1565 1566 1567 1568 1569 1569
1565 1565 1564 1563 1562 1561 1560 1559 1558 1557 1557 1556 1556 1555 1556 1556 1556 1556 1556 1556 1557 1558 1559 1559 1561 1560 1561 1562 1562 1563 1564 1566 1566
1565 1564 1562 1562 1561 1559 1558 1555 1554 1553 1551 1551 1552 1552 1552 1551 1551 1551 1550 1550 1551 1551 1553 1554 1555 1556 1557 1558 1558 1559 1560 1561 1563
1564 1562 1561 1560 1558 1556 1555 1553 1549 1547 1546 1546 1547 1547 1547 1547 1546 1546 1545 1544 1544 1543 1543 1546 1549 1551 1552 1552 1554 1554 1555 1557 1558
1565 1563 1561 1559 1557 1555 1552 1550 1547 1544 1540 1540 1540 1542 1542 1542 1542 1541 1539 1539 1539 1539 1539 1539 1540 1541 1544 1547 1548 1550 1551 1551 1553
1561 1559 1558 1557 1555 1552 1549 1549 1546 1543 1537 1534 1532 1533 1535 1535 1535 1534 1533 1533 1533 1534 1534 1533 1533 1534 1536 1537 1539 1543 1545 1546 1547
1559 1557 1556 1554 1553 1551 1548 1545 1543 1541 1536 1534 1529 1525 1527 1528 1530 1528 1528 1527 1528 1528 1529 1528 1527 1527 1527 1529 1531 1531 1532 1536 1538
1559 1558 1556 1554 1552 1550 1548 1545 1542 1541 1540 1536 1536 1532 1528 1521 1518 1523 1524 1522 1523 1521 1523 1520 1523 1521 1519 1519 1520 1520 1523 1525 1528
1558 1557 1556 1554 1552 1550 1548 1546 1543 1541 1539 1537 1537 1536 1533 1527 1513 1512 1516 1517 1517 1516 1514 1515 1516 1516 1515 1513 1510 1511 1510 1515 1517
1557 1555 1554 1552 1550 1549 1547 1545 1543 1541 1539 1536 1532 1531 1530 1528 1524 1510 1507 1509 1511 1511 1509 1509 1509 1509 1509 1508 1501 1502 1503 1504 1505